Location: Newark
(35.2672°N, 80.7344°W)
Time: 16:07:48
(UTC+00:00)

Vanguard 1 Rocket - All Passes

Search period start: 27 January 2020 00:00
Search period end: 06 February 2020 00:00
Orbit: 650 x 4226 km, 34.3° (Epoch: 26 January)

Date Brightness Start Highest point End Pass type
(mag) Time Alt. Az. Time Alt. Az. Time Alt. Az.
27 Jan - 12:05:45 10° S 12:09:07 16° SE 12:13:27 10° E daylight
27 Jan - 14:26:35 10° WSW 14:33:07 67° SSE 14:45:53 10° E daylight
27 Jan - 16:50:37 10° W 17:00:17 86° S 17:20:05 10° E daylight
27 Jan - 19:15:54 10° W 19:29:53 65° SSW 19:54:13 10° SE daylight
27 Jan - 21:44:04 10° W 22:00:40 35° SW 22:22:15 10° SSE daylight
28 Jan - 13:16:45 10° SW 13:22:05 44° SSE 13:31:18 10° E daylight
28 Jan - 15:40:01 10° W 15:47:50 85° S 16:03:57 10° E daylight
28 Jan - 18:04:38 10° W 18:16:15 75° SSW 18:38:42 10° ESE daylight
28 Jan - 20:31:01 10° W 20:46:30 46° SSW 21:09:50 10° SSE daylight
28 Jan - 23:04:37 10° WSW 23:17:05 17° SW 23:31:05 10° SSW visible
29 Jan - 12:07:38 10° SSW 12:11:38 22° SE 12:17:10 10° E daylight
29 Jan - 14:29:39 10° WSW 14:36:03 75° SSE 14:48:36 10° E daylight
29 Jan - 16:53:46 10° W 17:03:14 83° S 17:22:37 10° ESE daylight
29 Jan - 19:19:03 10° W 19:32:32 57° SSW 19:55:53 10° SE daylight
29 Jan - 21:48:05 10° W 22:03:03 27° SW 22:22:19 10° S daylight
30 Jan - 13:19:35 10° SW 13:24:54 54° SSE 13:34:12 10° E daylight
30 Jan - 15:43:11 10° W 15:50:51 86° S 16:06:38 10° E daylight
30 Jan - 18:07:47 10° W 18:19:04 68° SSW 18:40:48 10° ESE daylight
30 Jan - 20:34:30 10° W 20:49:02 38° SSW 21:10:39 10° SSE daylight
30 Jan - 23:13:18 10° WSW 23:19:37 12° SW 23:26:21 10° SSW visible
31 Jan - 12:10:01 10° SSW 12:14:17 30° SE 12:20:30 10° E daylight
31 Jan - 14:32:46 10° WSW 14:39:03 81° S 14:51:21 10° E daylight
31 Jan - 16:56:56 10° W 17:06:10 78° SSW 17:25:03 10° ESE daylight
31 Jan - 19:22:19 10° W 19:35:13 49° SSW 19:57:16 10° SE daylight
31 Jan - 21:52:51 10° W 22:05:35 21° SW 22:21:28 10° S daylight
01 Feb - 11:01:39 10° S 11:03:56 13° SE 11:06:32 10° ESE visible
01 Feb - 13:22:35 10° WSW 13:27:49 64° SSE 13:37:03 10° E daylight
01 Feb - 15:46:21 10° W 15:53:53 84° S 16:09:17 10° E daylight
01 Feb - 18:10:58 10° W 18:21:52 60° SSW 18:42:39 10° SE daylight
01 Feb - 20:38:19 10° W 20:51:39 30° SW 21:10:56 10° SSE daylight
02 Feb - 12:12:40 10° SW 12:17:04 40° SSE 12:23:38 10° E daylight
02 Feb - 14:35:57 10° W 14:42:07 84° S 14:54:08 10° E daylight
02 Feb - 17:00:06 10° W 17:09:07 70° SSW 17:27:20 10° ESE daylight
02 Feb - 19:25:45 10° W 19:37:58 40° SSW 19:58:15 10° SSE daylight
02 Feb - 21:59:14 10° WSW 22:08:17 14° SW 22:18:54 10° SSW daylight
03 Feb - 11:03:21 10° SSW 11:06:38 20° SE 11:10:33 10° E visible
03 Feb - 13:25:40 10° WSW 13:30:50 74° SSE 13:39:55 10° E daylight
03 Feb - 15:49:32 10° W 15:56:54 80° S 16:11:53 10° ESE daylight
03 Feb - 18:14:13 10° W 18:24:43 50° SSW 18:44:15 10° SE daylight
03 Feb - 20:42:41 10° W 20:54:22 23° SW 21:10:31 10° S daylight
04 Feb - 12:15:31 10° SW 12:19:59 51° SSE 12:26:40 10° E daylight
04 Feb - 14:39:09 10° W 14:45:12 84° S 14:56:55 10° E daylight
04 Feb - 17:03:18 10° W 17:12:02 61° SSW 17:29:26 10° SE daylight
04 Feb - 19:29:27 10° W 19:40:47 32° SSW 19:58:49 10° SSE daylight
05 Feb - 11:05:40 10° SSW 11:09:27 28° SSE 11:14:02 10° E visible
05 Feb - 13:28:49 10° W 13:33:55 81° S 13:42:48 10° E daylight
05 Feb - 15:52:44 10° W 15:59:55 72° SSW 16:14:23 10° ESE daylight
05 Feb - 18:17:37 10° W 18:27:37 41° SSW 18:45:30 10° SE daylight
05 Feb - 20:48:10 10° WSW 20:57:15 16° SW 21:08:51 10° S daylight
